Time,TemperatureF,DewpointF,PressureIn,WindDirection,WindDirectionDegrees,WindSpeedMPH,WindSpeedGustMPH,Humidity,HourlyPrecipIn,Conditions,Clouds,dailyrainin,SoftwareType,DateUTC
2013-02-01 00:17:00,25.5,14.0,29.80,SW,221,5.0,13.0,62,0.00,,,0.00,weatherlink.com 1.10,2013-02-01 05:17:00,
2013-02-01 00:32:00,25.7,14.0,29.81,SSW,193,2.0,14.0,62,0.00,,,0.00,weatherlink.com 1.10,2013-02-01 05:32:00,
2013-02-01 00:47:00,25.7,15.0,29.81,WSW,248,5.0,12.0,63,0.00,,,0.00,weatherlink.com 1.10,2013-02-01 05:47:00,
2013-02-01 01:02:00,25.6,14.0,29.81,WSW,250,3.0,8.0,63,0.00,,,0.00,weatherlink.com 1.10,2013-02-01 06:02:00,
2013-02-01 01:17:00,25.6,14.0,29.81,SW,235,1.0,5.0,63,0.00,,,0.00,weatherlink.com 1.10,2013-02-01 06:17:00,
2013-02-01 01:32:00,25.5,15.0,29.81,West,280,0.0,6.0,64,0.00,,,0.00,weatherlink.com 1.10,2013-02-01 06:32:00,
2013-02-01 01:47:00,25.2,15.0,29.80,SW,230,1.0,4.0,64,0.00,,,0.00,weatherlink.com 1.10,2013-02-01 06:47:00,
2013-02-01 02:02:00,25.0,14.0,29.80,WSW,257,0.0,5.0,63,0.00,,,0.00,weatherlink.com 1.10,2013-02-01 07:02:00,
2013-02-01 02:17:00,25.0,14.0,29.80,WSW,251,3.0,4.0,63,0.00,,,0.00,weatherlink.com 1.10,2013-02-01 07:17:00,
2013-02-01 02:32:00,24.9,14.0,29.79,WSW,243,0.0,3.0,63,0.00,,,0.00,weatherlink.com 1.10,2013-02-01 07:32:00,
2013-02-01 02:47:00,24.5,13.0,29.79,WSW,243,0.0,1.0,63,0.00,,,0.00,weatherlink.com 1.10,2013-02-01 07:47:00,
2013-02-01 03:02:00,24.2,14.0,29.80,WSW,243,0.0,3.0,64,0.00,,,0.00,weatherlink.com 1.10,2013-02-01 08:02:00,
2013-02-01 03:17:00,24.0,13.0,29.80,WSW,251,0.0,6.0,64,0.00,,,0.00,weatherlink.com 1.10,2013-02-01 08:17:00,
2013-02-01 03:32:00,24.3,13.0,29.80,SW,232,1.0,7.0,63,0.00,,,0.00,weatherlink.com 1.10,2013-02-01 08:32:00,
2013-02-01 03:47:00,24.9,13.0,29.80,WSW,242,3.0,7.0,62,0.00,,,0.00,weatherlink.com 1.10,2013-02-01 08:47:00,
2013-02-01 04:02:00,25.1,14.0,29.80,SW,233,0.0,10.0,62,0.00,,,0.00,weatherlink.com 1.10,2013-02-01 09:02:00,
2013-02-01 04:17:00,25.1,14.0,29.80,SW,222,2.0,8.0,63,0.00,,,0.00,weatherlink.com 1.10,2013-02-01 09:17:00,
2013-02-01 04:32:00,25.2,15.0,29.80,WNW,285,2.0,9.0,64,0.00,,,0.00,weatherlink.com 1.10,2013-02-01 09:32:00,
2013-02-01 04:47:00,25.1,15.0,29.81,WSW,244,0.0,11.0,65,0.00,,,0.00,weatherlink.com 1.10,2013-02-01 09:47:00,
2013-02-01 05:02:00,25.3,15.0,29.81,SW,226,1.0,9.0,65,0.00,,,0.00,weatherlink.com 1.10,2013-02-01 10:02:00,
2013-02-01 05:18:00,25.5,15.0,29.82,WNW,283,3.0,13.0,64,0.00,,,0.00,weatherlink.com 1.10,2013-02-01 10:18:00,
2013-02-01 05:33:00,25.4,15.0,29.82,West,269,0.0,8.0,65,0.00,,,0.00,weatherlink.com 1.10,2013-02-01 10:33:00,
2013-02-01 05:48:00,25.3,15.0,29.83,WSW,240,4.0,9.0,64,0.00,,,0.00,weatherlink.com 1.10,2013-02-01 10:48:00,
2013-02-01 06:03:00,25.3,14.0,29.84,SSW,211,4.0,7.0,63,0.00,,,0.00,weatherlink.com 1.10,2013-02-01 11:03:00,
2013-02-01 06:18:00,25.3,14.0,29.84,WSW,258,3.0,9.0,62,0.00,,,0.00,weatherlink.com 1.10,2013-02-01 11:18:00,
2013-02-01 06:33:00,25.3,14.0,29.84,West,266,6.0,13.0,62,0.00,,,0.00,weatherlink.com 1.10,2013-02-01 11:33:00,
2013-02-01 06:48:00,25.4,14.0,29.84,West,260,8.0,9.0,62,0.00,,,0.00,weatherlink.com 1.10,2013-02-01 11:48:00,
2013-02-01 07:03:00,25.4,14.0,29.85,WNW,282,0.0,12.0,63,0.00,,,0.00,weatherlink.com 1.10,2013-02-01 12:03:00,
2013-02-01 07:18:00,25.3,15.0,29.85,NW,322,1.0,13.0,64,0.00,,,0.00,weatherlink.com 1.10,2013-02-01 12:18:00,
2013-02-01 07:33:00,25.1,15.0,29.86,WNW,296,0.0,10.0,66,0.00,,,0.00,weatherlink.com 1.10,2013-02-01 12:33:00,
2013-02-01 07:48:00,24.8,15.0,29.85,NNW,338,6.0,10.0,67,0.00,,,0.00,weatherlink.com 1.10,2013-02-01 12:48:00,
2013-02-01 08:03:00,24.7,14.0,29.86,NNW,330,4.0,9.0,64,0.00,,,0.00,weatherlink.com 1.10,2013-02-01 13:03:00,
2013-02-01 08:18:00,24.6,13.0,29.86,NW,304,10.0,18.0,62,0.00,,,0.00,weatherlink.com 1.10,2013-02-01 13:18:00,
2013-02-01 08:33:00,24.7,13.0,29.87,NW,307,8.0,10.0,61,0.00,,,0.00,weatherlink.com 1.10,2013-02-01 13:33:00,
2013-02-01 08:48:00,24.8,12.0,29.88,WNW,284,2.0,12.0,58,0.00,,,0.00,weatherlink.com 1.10,2013-02-01 13:48:00,
2013-02-01 09:03:00,24.9,11.0,29.88,WNW,300,5.0,17.0,57,0.00,,,0.00,weatherlink.com 1.10,2013-02-01 14:03:00,
2013-02-01 09:17:00,24.9,11.0,29.89,NNW,341,6.0,21.0,56,0.00,,,0.00,weatherlink.com 1.10,2013-02-01 14:17:00,
2013-02-01 09:34:00,25.3,11.0,29.90,WNW,287,8.0,14.0,56,0.00,,,0.00,weatherlink.com 1.10,2013-02-01 14:34:00,
2013-02-01 09:49:00,25.3,11.0,29.90,WNW,300,6.0,15.0,54,0.00,,,0.00,weatherlink.com 1.10,2013-02-01 14:49:00,
2013-02-01 10:04:00,25.3,11.0,29.90,NNW,337,8.0,15.0,54,0.00,,,0.00,weatherlink.com 1.10,2013-02-01 15:04:00,
2013-02-01 10:18:00,25.2,10.0,29.91,WNW,283,8.0,17.0,53,0.00,,,0.00,weatherlink.com 1.10,2013-02-01 15:18:00,
2013-02-01 10:50:00,26.0,9.0,29.91,WNW,302,11.0,20.0,48,0.00,,,0.00,weatherlink.com 1.10,2013-02-01 15:50:00,
2013-02-01 11:03:00,26.1,8.0,29.91,North,360,9.0,22.0,47,0.00,,,0.00,weatherlink.com 1.10,2013-02-01 16:03:00,
2013-02-01 11:20:00,26.5,10.0,29.91,WNW,287,16.0,18.0,49,0.00,,,0.00,weatherlink.com 1.10,2013-02-01 16:20:00,
2013-02-01 11:35:00,26.5,9.0,29.91,NW,314,7.0,17.0,48,0.00,,,0.00,weatherlink.com 1.10,2013-02-01 16:35:00,
2013-02-01 11:50:00,26.2,9.0,29.91,North,350,10.0,20.0,48,0.00,,,0.00,weatherlink.com 1.10,2013-02-01 16:50:00,
2013-02-01 12:05:00,26.2,10.0,29.91,West,268,14.0,16.0,50,0.00,,,0.00,weatherlink.com 1.10,2013-02-01 17:05:00,
2013-02-01 12:20:00,27.3,8.0,29.91,NW,306,12.0,21.0,44,0.00,,,0.00,weatherlink.com 1.10,2013-02-01 17:20:00,
2013-02-01 12:35:00,26.8,9.0,29.92,West,280,6.0,21.0,47,0.00,,,0.00,weatherlink.com 1.10,2013-02-01 17:35:00,
2013-02-01 12:50:00,26.6,10.0,29.93,North,355,7.0,12.0,50,0.00,,,0.00,weatherlink.com 1.10,2013-02-01 17:50:00,
2013-02-01 13:05:00,26.7,10.0,29.93,WNW,294,12.0,17.0,49,0.00,,,0.00,weatherlink.com 1.10,2013-02-01 18:05:00,
2013-02-01 13:21:00,26.5,7.0,29.94,NW,320,7.0,19.0,44,0.00,,,0.00,weatherlink.com 1.10,2013-02-01 18:21:00,
2013-02-01 13:36:00,26.3,6.0,29.94,NW,305,9.0,15.0,43,0.00,,,0.00,weatherlink.com 1.10,2013-02-01 18:36:00,
2013-02-01 13:51:00,25.8,12.0,29.95,WNW,284,7.0,15.0,56,0.00,,,0.00,weatherlink.com 1.10,2013-02-01 18:51:00,
2013-02-01 14:06:00,27.7,14.0,29.96,WNW,284,3.0,19.0,56,0.00,,,0.00,weatherlink.com 1.10,2013-02-01 19:06:00,
2013-02-01 14:20:00,26.5,10.0,29.97,WNW,301,10.0,19.0,50,0.00,,,0.00,weatherlink.com 1.10,2013-02-01 19:20:00,
2013-02-01 14:37:00,25.4,13.0,29.97,NNW,331,11.0,19.0,60,0.00,,,0.00,weatherlink.com 1.10,2013-02-01 19:37:00,
2013-02-01 14:52:00,25.9,14.0,29.98,WNW,294,6.0,17.0,61,0.00,,,0.00,weatherlink.com 1.10,2013-02-01 19:52:00,
2013-02-01 15:07:00,26.1,14.0,29.99,NW,311,2.0,15.0,60,0.00,,,0.00,weatherlink.com 1.10,2013-02-01 20:07:00,
2013-02-01 15:21:00,25.0,14.0,30.00,NW,315,5.0,16.0,64,0.00,,,0.00,weatherlink.com 1.10,2013-02-01 20:21:00,
2013-02-01 15:36:00,24.6,15.0,30.02,NNW,333,12.0,22.0,68,0.00,,,0.00,weatherlink.com 1.10,2013-02-01 20:36:00,
2013-02-01 15:53:00,23.8,16.0,30.02,NNW,340,7.0,13.0,71,0.00,,,0.00,weatherlink.com 1.10,2013-02-01 20:53:00,
2013-02-01 16:08:00,23.8,16.0,30.03,WNW,296,3.0,13.0,73,0.00,,,0.00,weatherlink.com 1.10,2013-02-01 21:08:00,
2013-02-01 16:23:00,23.6,17.0,30.05,North,350,9.0,19.0,76,0.00,,,0.00,weatherlink.com 1.10,2013-02-01 21:23:00,
2013-02-01 16:38:00,23.4,17.0,30.05,NW,323,5.0,12.0,75,0.00,,,0.00,weatherlink.com 1.10,2013-02-01 21:38:00,
2013-02-01 16:53:00,23.5,15.0,30.06,NW,325,6.0,13.0,71,0.00,,,0.00,weatherlink.com 1.10,2013-02-01 21:53:00,
2013-02-01 17:07:00,23.8,15.0,30.07,NW,308,15.0,20.0,69,0.00,,,0.00,weatherlink.com 1.10,2013-02-01 22:07:00,
2013-02-01 17:22:00,23.3,16.0,30.09,NNW,340,8.0,12.0,73,0.00,,,0.00,weatherlink.com 1.10,2013-02-01 22:22:00,
2013-02-01 17:39:00,23.0,16.0,30.10,NW,325,9.0,20.0,75,0.00,,,0.00,weatherlink.com 1.10,2013-02-01 22:39:00,
2013-02-01 17:54:00,22.3,17.0,30.11,North,360,8.0,10.0,81,0.00,,,0.00,weatherlink.com 1.10,2013-02-01 22:54:00,
2013-02-01 18:09:00,22.0,17.0,30.11,West,265,8.0,14.0,82,0.00,,,0.00,weatherlink.com 1.10,2013-02-01 23:09:00,
2013-02-01 18:24:00,22.2,17.0,30.13,NNW,334,1.0,9.0,79,0.00,,,0.00,weatherlink.com 1.10,2013-02-01 23:24:00,
2013-02-01 18:39:00,22.3,16.0,30.14,West,278,9.0,13.0,76,0.00,,,0.00,weatherlink.com 1.10,2013-02-01 23:39:00,
2013-02-01 18:53:00,22.5,14.0,30.15,NW,306,9.0,15.0,71,0.00,,,0.00,weatherlink.com 1.10,2013-02-01 23:53:00,
2013-02-01 19:10:00,22.7,14.0,30.15,NW,309,1.0,17.0,68,0.00,,,0.00,weatherlink.com 1.10,2013-02-02 00:10:00,
2013-02-01 19:25:00,22.3,14.0,30.16,NW,308,3.0,9.0,69,0.00,,,0.00,weatherlink.com 1.10,2013-02-02 00:25:00,
2013-02-01 19:39:00,22.3,13.0,30.17,WNW,301,0.0,10.0,68,0.00,,,0.00,weatherlink.com 1.10,2013-02-02 00:39:00,
2013-02-01 19:54:00,22.4,13.0,30.17,WNW,292,5.0,12.0,66,0.00,,,0.00,weatherlink.com 1.10,2013-02-02 00:54:00,
2013-02-01 20:10:00,22.6,12.0,30.18,WNW,291,3.0,10.0,63,0.00,,,0.00,weatherlink.com 1.10,2013-02-02 01:10:00,
2013-02-01 20:25:00,22.3,11.0,30.19,West,273,5.0,13.0,63,0.00,,,0.00,weatherlink.com 1.10,2013-02-02 01:25:00,
2013-02-01 20:40:00,21.8,12.0,30.20,WNW,288,6.0,12.0,65,0.00,,,0.00,weatherlink.com 1.10,2013-02-02 01:40:00,
2013-02-01 20:55:00,21.5,11.0,30.20,West,271,2.0,12.0,65,0.00,,,0.00,weatherlink.com 1.10,2013-02-02 01:55:00,
2013-02-01 21:11:00,21.2,11.0,30.21,WNW,287,7.0,14.0,65,0.00,,,0.00,weatherlink.com 1.10,2013-02-02 02:11:00,
2013-02-01 21:26:00,21.2,10.0,30.21,WNW,295,3.0,12.0,63,0.00,,,0.00,weatherlink.com 1.10,2013-02-02 02:26:00,
2013-02-01 21:41:00,21.1,10.0,30.22,WNW,288,0.0,10.0,63,0.00,,,0.00,weatherlink.com 1.10,2013-02-02 02:41:00,
2013-02-01 21:56:00,21.1,9.0,30.23,West,265,2.0,11.0,61,0.00,,,0.00,weatherlink.com 1.10,2013-02-02 02:56:00,
2013-02-01 22:11:00,21.1,9.0,30.23,WSW,247,5.0,12.0,60,0.00,,,0.00,weatherlink.com 1.10,2013-02-02 03:11:00,
2013-02-01 22:26:00,20.7,9.0,30.23,WNW,288,8.0,11.0,61,0.00,,,0.00,weatherlink.com 1.10,2013-02-02 03:26:00,
2013-02-01 22:42:00,20.3,9.0,30.24,WNW,284,9.0,13.0,61,0.00,,,0.00,weatherlink.com 1.10,2013-02-02 03:42:00,
2013-02-01 22:57:00,20.0,9.0,30.25,West,265,0.0,13.0,62,0.00,,,0.00,weatherlink.com 1.10,2013-02-02 03:57:00,
2013-02-01 23:12:00,19.9,9.0,30.25,NW,304,3.0,11.0,62,0.00,,,0.00,weatherlink.com 1.10,2013-02-02 04:12:00,
2013-02-01 23:27:00,19.7,8.0,30.25,West,269,6.0,14.0,61,0.00,,,0.00,weatherlink.com 1.10,2013-02-02 04:27:00,
2013-02-01 23:42:00,19.5,8.0,30.25,NW,306,0.0,14.0,61,0.00,,,0.00,weatherlink.com 1.10,2013-02-02 04:42:00,
2013-02-01 23:57:00,19.2,8.0,30.26,WNW,284,5.0,14.0,61,0.00,,,0.00,weatherlink.com 1.10,2013-02-02 04:57:00,